Year,Month,Day,Hour,Minute,Value (Times are PST for windspeed in km/hr)
2017,06,15,00,00,4.90
2017,06,15,00,01,4.80
2017,06,15,00,02,4.70
2017,06,15,00,03,2.80
2017,06,15,00,04,3.50
2017,06,15,00,05,3.70
2017,06,15,00,06,3.20
2017,06,15,00,07,5.60
2017,06,15,00,08,6.10
2017,06,15,00,09,6.20
2017,06,15,00,10,7.90
2017,06,15,00,11,8.50
2017,06,15,00,12,5.70
2017,06,15,00,13,10.30
2017,06,15,00,14,7.60
2017,06,15,00,15,6.40
2017,06,15,00,16,8.60
2017,06,15,00,17,8.50
2017,06,15,00,18,6.20
2017,06,15,00,19,11.00
2017,06,15,00,20,8.70
2017,06,15,00,21,7.00
2017,06,15,00,22,8.70
2017,06,15,00,23,8.00
2017,06,15,00,24,8.20
2017,06,15,00,25,13.20
2017,06,15,00,26,10.10
2017,06,15,00,27,10.90
2017,06,15,00,28,9.80
2017,06,15,00,29,7.30
2017,06,15,00,30,8.30
2017,06,15,00,31,11.40
2017,06,15,00,32,10.30
2017,06,15,00,33,9.30
2017,06,15,00,34,6.40
2017,06,15,00,35,3.30
2017,06,15,00,36,8.20
2017,06,15,00,37,13.10
2017,06,15,00,38,10.80
2017,06,15,00,39,13.60
2017,06,15,00,40,11.50
2017,06,15,00,41,18.80
2017,06,15,00,42,15.00
2017,06,15,00,43,13.00
2017,06,15,00,44,11.60
2017,06,15,00,45,13.30
2017,06,15,00,46,12.20
2017,06,15,00,47,14.30
2017,06,15,00,48,14.20
2017,06,15,00,49,13.50
2017,06,15,00,50,13.50
2017,06,15,00,51,12.90
2017,06,15,00,52,12.00
2017,06,15,00,53,12.30
2017,06,15,00,54,11.20
2017,06,15,00,55,12.70
2017,06,15,00,56,13.10
2017,06,15,00,57,10.70
2017,06,15,00,58,11.80
2017,06,15,00,59,10.40
2017,06,15,01,00,8.60
2017,06,15,01,01,12.60
2017,06,15,01,02,12.20
2017,06,15,01,03,8.60
2017,06,15,01,04,10.20
2017,06,15,01,05,7.50
2017,06,15,01,06,11.90
2017,06,15,01,07,11.00
2017,06,15,01,08,12.00
2017,06,15,01,09,11.90
2017,06,15,01,10,8.80
2017,06,15,01,11,8.80
2017,06,15,01,12,9.60
2017,06,15,01,13,11.40
2017,06,15,01,14,10.40
2017,06,15,01,15,13.50
2017,06,15,01,16,14.00
2017,06,15,01,17,12.90
2017,06,15,01,18,14.80
2017,06,15,01,19,14.20
2017,06,15,01,20,12.80
2017,06,15,01,21,12.50
2017,06,15,01,22,13.60
2017,06,15,01,23,9.70
2017,06,15,01,24,13.10
2017,06,15,01,25,9.00
2017,06,15,01,26,9.70
2017,06,15,01,27,11.70
2017,06,15,01,28,8.10
2017,06,15,01,29,8.60
2017,06,15,01,30,6.90
2017,06,15,01,31,9.40
2017,06,15,01,32,5.20
2017,06,15,01,33,6.80
2017,06,15,01,34,9.90
2017,06,15,01,35,8.10
2017,06,15,01,36,6.60
2017,06,15,01,37,7.80
2017,06,15,01,38,9.50
2017,06,15,01,39,10.40
2017,06,15,01,40,12.50
2017,06,15,01,41,6.30
2017,06,15,01,42,9.50
2017,06,15,01,43,6.40
2017,06,15,01,44,11.60
2017,06,15,01,45,10.60
2017,06,15,01,46,8.70
2017,06,15,01,47,10.70
2017,06,15,01,48,10.90
2017,06,15,01,49,8.10
2017,06,15,01,50,8.90
2017,06,15,01,51,9.70
2017,06,15,01,52,10.90
2017,06,15,01,53,9.10
2017,06,15,01,54,10.60
2017,06,15,01,55,9.10
2017,06,15,01,56,9.00
2017,06,15,01,57,7.60
2017,06,15,01,58,12.30
2017,06,15,01,59,11.20
2017,06,15,02,00,12.30
2017,06,15,02,01,13.10
2017,06,15,02,02,10.10
2017,06,15,02,03,10.60
2017,06,15,02,04,11.80
2017,06,15,02,05,10.30
2017,06,15,02,06,10.60
2017,06,15,02,07,9.10
2017,06,15,02,08,7.90
2017,06,15,02,09,6.40
2017,06,15,02,10,5.50
2017,06,15,02,11,6.20
2017,06,15,02,12,12.00
2017,06,15,02,13,8.80
2017,06,15,02,14,9.50
2017,06,15,02,15,9.00
2017,06,15,02,16,6.80
2017,06,15,02,17,4.50
2017,06,15,02,18,4.60
2017,06,15,02,19,6.30
2017,06,15,02,20,3.90
2017,06,15,02,21,7.20
2017,06,15,02,22,3.90
2017,06,15,02,23,9.30
2017,06,15,02,24,10.30
2017,06,15,02,25,7.00
2017,06,15,02,26,10.40
2017,06,15,02,27,15.60
2017,06,15,02,28,13.20
2017,06,15,02,29,16.50
2017,06,15,02,30,15.80
2017,06,15,02,31,18.00
2017,06,15,02,32,17.90
2017,06,15,02,33,14.00
2017,06,15,02,34,10.90
2017,06,15,02,35,13.90
2017,06,15,02,36,12.20
2017,06,15,02,37,11.80
2017,06,15,02,38,10.80
2017,06,15,02,39,15.50
2017,06,15,02,40,13.30
2017,06,15,02,41,10.10
2017,06,15,02,42,10.80
2017,06,15,02,43,9.80
2017,06,15,02,44,10.70
2017,06,15,02,45,12.20
2017,06,15,02,46,11.70
2017,06,15,02,47,12.30
2017,06,15,02,48,9.90
2017,06,15,02,49,11.90
2017,06,15,02,50,9.50
2017,06,15,02,51,9.40
2017,06,15,02,52,14.10
2017,06,15,02,53,13.20
2017,06,15,02,54,9.10
2017,06,15,02,55,10.70
2017,06,15,02,56,8.60
2017,06,15,02,57,12.80
2017,06,15,02,58,13.20
2017,06,15,02,59,11.40
2017,06,15,03,00,8.10
2017,06,15,03,01,14.40
2017,06,15,03,02,15.70
2017,06,15,03,03,16.30
2017,06,15,03,04,13.60
2017,06,15,03,05,11.60
2017,06,15,03,06,3.80
2017,06,15,03,07,6.70
2017,06,15,03,08,10.30
2017,06,15,03,09,9.80
2017,06,15,03,10,9.80
2017,06,15,03,11,10.70
2017,06,15,03,12,7.50
2017,06,15,03,13,6.30
2017,06,15,03,14,4.90
2017,06,15,03,15,8.50
2017,06,15,03,16,13.60
2017,06,15,03,17,7.20
2017,06,15,03,18,8.70
2017,06,15,03,19,9.50
2017,06,15,03,20,9.00
2017,06,15,03,21,8.00
2017,06,15,03,22,10.50
2017,06,15,03,23,6.70
2017,06,15,03,24,7.30
2017,06,15,03,25,10.90
2017,06,15,03,26,10.10
2017,06,15,03,27,11.00
2017,06,15,03,28,10.40
2017,06,15,03,29,10.60
2017,06,15,03,30,10.60
2017,06,15,03,31,9.90
2017,06,15,03,32,11.30
2017,06,15,03,33,10.90
2017,06,15,03,34,9.20
2017,06,15,03,35,13.00
2017,06,15,03,36,13.70
2017,06,15,03,37,15.40
2017,06,15,03,38,15.10
2017,06,15,03,39,14.70
2017,06,15,03,40,12.70
2017,06,15,03,41,14.40
2017,06,15,03,42,13.10
2017,06,15,03,43,15.60
2017,06,15,03,44,17.90
2017,06,15,03,45,15.30
2017,06,15,03,46,14.30
2017,06,15,03,47,10.40
2017,06,15,03,48,9.30
2017,06,15,03,49,10.50
2017,06,15,03,50,14.40
2017,06,15,03,51,12.80
2017,06,15,03,52,11.30
2017,06,15,03,53,10.10
2017,06,15,03,54,9.70
2017,06,15,03,55,10.30
2017,06,15,03,56,11.60
2017,06,15,03,57,9.70
2017,06,15,03,58,12.60
2017,06,15,03,59,8.50
2017,06,15,04,00,9.40
2017,06,15,04,01,12.50
2017,06,15,04,02,13.20
2017,06,15,04,03,8.60
2017,06,15,04,04,10.00
2017,06,15,04,05,10.10
2017,06,15,04,06,12.70
2017,06,15,04,07,11.50
2017,06,15,04,08,13.50
2017,06,15,04,09,12.80
2017,06,15,04,10,10.50
2017,06,15,04,11,12.10
2017,06,15,04,12,11.90
2017,06,15,04,13,16.20
2017,06,15,04,14,14.80
2017,06,15,04,15,12.60
2017,06,15,04,16,14.40
2017,06,15,04,17,13.30
2017,06,15,04,18,14.00
2017,06,15,04,19,15.60
2017,06,15,04,20,12.60
2017,06,15,04,21,9.70
2017,06,15,04,22,11.70
2017,06,15,04,23,8.80
2017,06,15,04,24,11.90
2017,06,15,04,25,15.30
2017,06,15,04,26,10.70
2017,06,15,04,27,18.80
2017,06,15,04,28,13.10
2017,06,15,04,29,16.70
2017,06,15,04,30,10.40
2017,06,15,04,31,12.60
2017,06,15,04,32,12.40
2017,06,15,04,33,15.30
2017,06,15,04,34,14.40
2017,06,15,04,35,17.60
2017,06,15,04,36,17.60
2017,06,15,04,37,15.80
2017,06,15,04,38,16.60
2017,06,15,04,39,18.90
2017,06,15,04,40,19.40
2017,06,15,04,41,12.40
2017,06,15,04,42,12.80
2017,06,15,04,43,16.30
2017,06,15,04,44,15.00
2017,06,15,04,45,15.30
2017,06,15,04,46,19.60
2017,06,15,04,47,19.10
2017,06,15,04,48,19.40
2017,06,15,04,49,14.90
2017,06,15,04,50,16.80
2017,06,15,04,51,18.50
2017,06,15,04,52,15.70
2017,06,15,04,53,13.40
2017,06,15,04,54,14.20
2017,06,15,04,55,14.80
2017,06,15,04,56,14.60
2017,06,15,04,57,19.40
2017,06,15,04,58,14.20
2017,06,15,04,59,20.00
2017,06,15,05,00,14.50
2017,06,15,05,01,14.40
2017,06,15,05,02,13.80
2017,06,15,05,03,14.30
2017,06,15,05,04,16.10
2017,06,15,05,05,15.60
2017,06,15,05,06,16.00
2017,06,15,05,07,19.70
2017,06,15,05,08,15.80
2017,06,15,05,09,14.80
2017,06,15,05,10,17.10
2017,06,15,05,11,17.20
2017,06,15,05,12,14.80
2017,06,15,05,13,13.80
2017,06,15,05,14,22.40
2017,06,15,05,15,16.00
2017,06,15,05,16,15.60
2017,06,15,05,17,15.70
2017,06,15,05,18,19.20
2017,06,15,05,19,18.70
2017,06,15,05,20,20.10
2017,06,15,05,21,17.10
2017,06,15,05,22,17.60
2017,06,15,05,23,15.60
2017,06,15,05,24,16.10
2017,06,15,05,25,15.70
2017,06,15,05,26,18.80
2017,06,15,05,27,16.50
2017,06,15,05,28,18.20
2017,06,15,05,29,14.80
2017,06,15,05,30,18.50
2017,06,15,05,31,16.60
2017,06,15,05,32,21.00
2017,06,15,05,33,18.70
2017,06,15,05,34,21.20
2017,06,15,05,35,17.00
2017,06,15,05,36,19.50
2017,06,15,05,37,17.20
2017,06,15,05,38,15.00
2017,06,15,05,39,16.00
2017,06,15,05,40,11.90
2017,06,15,05,41,13.30
2017,06,15,05,42,13.30
2017,06,15,05,43,16.50
2017,06,15,05,44,17.90
2017,06,15,05,45,13.80
2017,06,15,05,46,19.70
2017,06,15,05,47,11.90
2017,06,15,05,48,13.50
2017,06,15,05,49,12.40
2017,06,15,05,50,14.20
2017,06,15,05,51,10.30
2017,06,15,05,52,10.70
2017,06,15,05,53,14.20
2017,06,15,05,54,9.90
2017,06,15,05,55,11.40
2017,06,15,05,56,14.20
2017,06,15,05,57,17.80
2017,06,15,05,58,12.20
2017,06,15,05,59,11.60
2017,06,15,06,00,10.40
2017,06,15,06,01,13.80
2017,06,15,06,02,10.30
2017,06,15,06,03,14.20
2017,06,15,06,04,13.00
2017,06,15,06,05,13.90
2017,06,15,06,06,18.10
2017,06,15,06,07,13.70
2017,06,15,06,08,13.40
2017,06,15,06,09,12.70
2017,06,15,06,10,14.30
2017,06,15,06,11,10.90
2017,06,15,06,12,15.80
2017,06,15,06,13,15.70
2017,06,15,06,14,18.10
2017,06,15,06,15,12.00
2017,06,15,06,16,11.40
2017,06,15,06,17,12.40
2017,06,15,06,18,11.70
2017,06,15,06,19,14.80
2017,06,15,06,20,16.70
2017,06,15,06,21,14.30
2017,06,15,06,22,16.30
2017,06,15,06,23,21.00
2017,06,15,06,24,19.50
2017,06,15,06,25,17.70
2017,06,15,06,26,19.40
2017,06,15,06,27,15.70
2017,06,15,06,28,13.10
2017,06,15,06,29,14.80
2017,06,15,06,30,20.10
2017,06,15,06,31,15.30
2017,06,15,06,32,17.00
2017,06,15,06,33,16.70
2017,06,15,06,34,22.10
2017,06,15,06,35,18.80
2017,06,15,06,36,15.00
2017,06,15,06,37,12.60
2017,06,15,06,38,11.60
2017,06,15,06,39,19.50
2017,06,15,06,40,13.70
2017,06,15,06,41,14.50
2017,06,15,06,42,16.40
2017,06,15,06,43,17.20
2017,06,15,06,44,12.80
2017,06,15,06,45,13.40
2017,06,15,06,46,16.40
2017,06,15,06,47,13.80
2017,06,15,06,48,13.40
2017,06,15,06,49,17.70
2017,06,15,06,50,16.00
2017,06,15,06,51,13.60
2017,06,15,06,52,10.60
2017,06,15,06,53,13.50
2017,06,15,06,54,19.30
2017,06,15,06,55,18.10
2017,06,15,06,56,17.60
2017,06,15,06,57,19.20
2017,06,15,06,58,17.60
2017,06,15,06,59,13.20
2017,06,15,07,00,17.20
2017,06,15,07,01,13.70
2017,06,15,07,02,19.60
2017,06,15,07,03,16.50
2017,06,15,07,04,14.70
2017,06,15,07,05,12.50
2017,06,15,07,06,19.10
2017,06,15,07,07,17.50
2017,06,15,07,08,15.60
2017,06,15,07,09,21.60
2017,06,15,07,10,14.40
2017,06,15,07,11,15.00
2017,06,15,07,12,13.10
2017,06,15,07,13,14.00
2017,06,15,07,14,15.00
2017,06,15,07,15,13.40
2017,06,15,07,16,16.90
2017,06,15,07,17,17.50
2017,06,15,07,18,15.80
2017,06,15,07,19,16.30
2017,06,15,07,20,16.70
2017,06,15,07,21,17.80
2017,06,15,07,22,19.00
2017,06,15,07,23,15.30
2017,06,15,07,24,12.90
2017,06,15,07,25,17.50
2017,06,15,07,26,17.50
2017,06,15,07,27,17.70
2017,06,15,07,28,13.20
2017,06,15,07,29,15.30
2017,06,15,07,30,16.00
2017,06,15,07,31,17.30
2017,06,15,07,32,12.10
2017,06,15,07,33,12.10
2017,06,15,07,34,15.00
2017,06,15,07,35,18.80
2017,06,15,07,36,14.80
2017,06,15,07,37,15.00
2017,06,15,07,38,17.00
2017,06,15,07,39,19.50
2017,06,15,07,40,12.20
2017,06,15,07,41,18.70
2017,06,15,07,42,18.80
2017,06,15,07,43,14.50
2017,06,15,07,44,17.70
2017,06,15,07,45,17.00
2017,06,15,07,46,15.20
2017,06,15,07,47,15.30
2017,06,15,07,48,10.90
2017,06,15,07,49,16.50
2017,06,15,07,50,19.30
2017,06,15,07,51,16.50
2017,06,15,07,52,16.20
2017,06,15,07,53,17.80
2017,06,15,07,54,16.10
2017,06,15,07,55,16.00
2017,06,15,07,56,19.10
2017,06,15,07,57,21.80
2017,06,15,07,58,19.60
2017,06,15,07,59,19.60
2017,06,15,08,00,13.90
2017,06,15,08,01,16.30
2017,06,15,08,02,19.90
2017,06,15,08,03,22.10
2017,06,15,08,04,19.20
2017,06,15,08,05,16.20
2017,06,15,08,06,14.50
2017,06,15,08,07,19.10
2017,06,15,08,08,17.30
2017,06,15,08,09,21.00
2017,06,15,08,10,10.40
2017,06,15,08,11,11.30
2017,06,15,08,12,12.10
2017,06,15,08,13,15.50
2017,06,15,08,14,20.00
2017,06,15,08,15,21.60
2017,06,15,08,16,20.90
2017,06,15,08,17,19.30
2017,06,15,08,18,18.80
2017,06,15,08,19,15.00
2017,06,15,08,20,19.30
2017,06,15,08,21,18.40
2017,06,15,08,22,17.90
2017,06,15,08,23,21.10
2017,06,15,08,24,17.00
2017,06,15,08,25,21.50
2017,06,15,08,26,18.80
2017,06,15,08,27,13.60
2017,06,15,08,28,18.00
2017,06,15,08,29,22.50
2017,06,15,08,30,18.80
2017,06,15,08,31,19.30
2017,06,15,08,32,25.70
2017,06,15,08,33,18.60
2017,06,15,08,34,17.60
2017,06,15,08,35,16.70
2017,06,15,08,36,13.30
2017,06,15,08,37,15.20
2017,06,15,08,38,17.30
2017,06,15,08,39,27.40
2017,06,15,08,40,17.50
2017,06,15,08,41,17.10
2017,06,15,08,42,18.50
2017,06,15,08,43,16.00
2017,06,15,08,44,18.70
2017,06,15,08,45,19.70
2017,06,15,08,46,17.70
2017,06,15,08,47,17.20
2017,06,15,08,48,19.60
2017,06,15,08,49,16.80
2017,06,15,08,50,19.00
2017,06,15,08,51,19.10
2017,06,15,08,52,18.10
2017,06,15,08,53,24.50
2017,06,15,08,54,16.40
2017,06,15,08,55,18.30
2017,06,15,08,56,23.50
2017,06,15,08,57,22.50
2017,06,15,08,58,22.10
2017,06,15,08,59,20.40
2017,06,15,09,00,20.30
2017,06,15,09,01,14.70
2017,06,15,09,02,18.00
2017,06,15,09,03,19.10
2017,06,15,09,04,17.50
2017,06,15,09,05,16.90
2017,06,15,09,06,19.60
2017,06,15,09,07,25.30
2017,06,15,09,08,17.80
2017,06,15,09,09,19.70
2017,06,15,09,10,19.10
2017,06,15,09,11,17.30
2017,06,15,09,12,15.70
2017,06,15,09,13,21.20
2017,06,15,09,14,21.60
2017,06,15,09,15,19.70
2017,06,15,09,16,20.80
2017,06,15,09,17,16.30
2017,06,15,09,18,20.70
2017,06,15,09,19,17.60
2017,06,15,09,20,22.50
2017,06,15,09,21,17.50
2017,06,15,09,22,19.10
2017,06,15,09,23,18.90
2017,06,15,09,24,18.20
2017,06,15,09,25,15.70
2017,06,15,09,26,16.00
2017,06,15,09,27,16.40
2017,06,15,09,28,16.00
2017,06,15,09,29,22.80
2017,06,15,09,30,19.90
2017,06,15,09,31,19.80
2017,06,15,09,32,20.70
2017,06,15,09,33,20.60
2017,06,15,09,34,21.90
2017,06,15,09,35,24.70
2017,06,15,09,36,25.20
2017,06,15,09,37,23.80
2017,06,15,09,38,17.40
2017,06,15,09,39,15.40
2017,06,15,09,40,20.70
2017,06,15,09,41,23.00
2017,06,15,09,42,24.80
2017,06,15,09,43,19.90
2017,06,15,09,44,16.30
2017,06,15,09,45,21.60
2017,06,15,09,46,23.20
2017,06,15,09,47,16.60
2017,06,15,09,48,24.00
2017,06,15,09,49,24.80
2017,06,15,09,50,16.30
2017,06,15,09,51,17.80
2017,06,15,09,52,21.40
2017,06,15,09,53,20.30
2017,06,15,09,54,24.50
2017,06,15,09,55,23.50
2017,06,15,09,56,18.90
2017,06,15,09,57,18.70
2017,06,15,09,58,21.70
2017,06,15,09,59,26.60
2017,06,15,10,00,24.80
2017,06,15,10,01,26.60
2017,06,15,10,02,29.90
2017,06,15,10,03,28.90
2017,06,15,10,04,26.30
2017,06,15,10,05,28.40
2017,06,15,10,06,27.80
2017,06,15,10,07,28.30
2017,06,15,10,08,28.40
2017,06,15,10,09,29.10
2017,06,15,10,10,31.80
2017,06,15,10,11,26.00
2017,06,15,10,12,25.50
2017,06,15,10,13,29.70
2017,06,15,10,14,35.60
2017,06,15,10,15,34.90
2017,06,15,10,16,37.20
2017,06,15,10,17,33.00
2017,06,15,10,18,36.10
2017,06,15,10,19,29.90
2017,06,15,10,20,28.70
2017,06,15,10,21,31.00
2017,06,15,10,22,32.10
2017,06,15,10,23,35.00
2017,06,15,10,24,31.10
2017,06,15,10,25,27.10
2017,06,15,10,26,33.60
2017,06,15,10,27,30.40
2017,06,15,10,28,26.00
2017,06,15,10,29,28.70
2017,06,15,10,30,30.00
2017,06,15,10,31,24.70
2017,06,15,10,32,29.10
2017,06,15,10,33,27.90
2017,06,15,10,34,27.50
2017,06,15,10,35,33.50
2017,06,15,10,36,27.10
2017,06,15,10,37,31.70
2017,06,15,10,38,29.70
2017,06,15,10,39,29.00
2017,06,15,10,40,30.30
2017,06,15,10,41,29.30
2017,06,15,10,42,26.20
2017,06,15,10,43,26.70
2017,06,15,10,44,28.80
2017,06,15,10,45,34.10
2017,06,15,10,46,32.10
2017,06,15,10,47,30.50
2017,06,15,10,48,29.00
2017,06,15,10,49,25.80
2017,06,15,10,50,25.20
2017,06,15,10,51,25.30
2017,06,15,10,52,29.20
2017,06,15,10,53,30.50
2017,06,15,10,54,30.10
2017,06,15,10,55,32.10
2017,06,15,10,56,32.80
2017,06,15,10,57,29.90
2017,06,15,10,58,27.40
2017,06,15,10,59,26.90
2017,06,15,11,00,33.50
2017,06,15,11,01,24.30
2017,06,15,11,02,25.50
2017,06,15,11,03,25.10
2017,06,15,11,04,27.20
2017,06,15,11,05,24.70
2017,06,15,11,06,27.20
2017,06,15,11,07,25.60
2017,06,15,11,08,23.50
2017,06,15,11,09,27.60
2017,06,15,11,10,29.20
2017,06,15,11,11,25.90
2017,06,15,11,12,26.90
2017,06,15,11,13,25.30
2017,06,15,11,14,30.90
2017,06,15,11,15,30.60
2017,06,15,11,16,31.80
2017,06,15,11,17,31.70
2017,06,15,11,18,29.50
2017,06,15,11,19,32.00
2017,06,15,11,20,30.90
2017,06,15,11,21,32.10
2017,06,15,11,22,29.70
2017,06,15,11,23,28.40
2017,06,15,11,24,32.70
2017,06,15,11,25,26.70
2017,06,15,11,26,27.10
2017,06,15,11,27,24.30
2017,06,15,11,28,26.20
2017,06,15,11,29,30.20
2017,06,15,11,30,28.40
2017,06,15,11,31,34.00
2017,06,15,11,32,30.20
2017,06,15,11,33,30.80
2017,06,15,11,34,31.90
2017,06,15,11,35,27.50
2017,06,15,11,36,40.70
2017,06,15,11,37,36.50
2017,06,15,11,38,31.30
2017,06,15,11,39,33.90
2017,06,15,11,40,34.50
2017,06,15,11,41,31.80
2017,06,15,11,42,33.90
2017,06,15,11,43,30.60
2017,06,15,11,44,27.80
2017,06,15,11,45,27.70
2017,06,15,11,46,36.80
2017,06,15,11,47,27.80
2017,06,15,11,48,27.00
2017,06,15,11,49,29.10
2017,06,15,11,50,26.50
2017,06,15,11,51,29.10
2017,06,15,11,52,26.70
2017,06,15,11,53,33.00
2017,06,15,11,54,31.90
2017,06,15,11,55,32.10
2017,06,15,11,56,28.90
2017,06,15,11,57,32.70
2017,06,15,11,58,29.80
2017,06,15,11,59,26.80
2017,06,15,12,00,23.80
2017,06,15,12,01,27.40
2017,06,15,12,02,30.50
2017,06,15,12,03,27.60
2017,06,15,12,04,31.90
2017,06,15,12,05,23.60
2017,06,15,12,06,28.40
2017,06,15,12,07,27.50
2017,06,15,12,08,26.30
2017,06,15,12,09,28.50
2017,06,15,12,10,26.00
2017,06,15,12,11,26.30
2017,06,15,12,12,24.00
2017,06,15,12,13,25.70
2017,06,15,12,14,32.50
2017,06,15,12,15,27.70
2017,06,15,12,16,23.50
2017,06,15,12,17,31.20
2017,06,15,12,18,28.00
2017,06,15,12,19,25.70
2017,06,15,12,20,26.30
2017,06,15,12,21,27.40
2017,06,15,12,22,24.70
2017,06,15,12,23,23.10
2017,06,15,12,24,29.60
2017,06,15,12,25,29.70
2017,06,15,12,26,28.50
2017,06,15,12,27,31.50
2017,06,15,12,28,26.20
2017,06,15,12,29,25.00
2017,06,15,12,30,27.10
2017,06,15,12,31,19.80
2017,06,15,12,32,24.00
2017,06,15,12,33,20.00
2017,06,15,12,34,26.00
2017,06,15,12,35,23.10
2017,06,15,12,36,24.50
2017,06,15,12,37,24.40
2017,06,15,12,38,23.00
2017,06,15,12,39,23.40
2017,06,15,12,40,22.40
2017,06,15,12,41,25.70
2017,06,15,12,42,20.00
2017,06,15,12,43,19.20
2017,06,15,12,44,25.50
2017,06,15,12,45,24.70
2017,06,15,12,46,29.10
2017,06,15,12,47,23.10
2017,06,15,12,48,17.60
2017,06,15,12,49,25.10
2017,06,15,12,50,24.90
2017,06,15,12,51,21.30
2017,06,15,12,52,21.70
2017,06,15,12,53,22.20
2017,06,15,12,54,24.50
2017,06,15,12,55,22.90
2017,06,15,12,56,28.70
2017,06,15,12,57,24.70
2017,06,15,12,58,19.60
2017,06,15,12,59,25.20
2017,06,15,13,00,23.60
2017,06,15,13,01,21.70
2017,06,15,13,02,26.30
2017,06,15,13,03,25.10
2017,06,15,13,04,21.60
2017,06,15,13,05,19.50
2017,06,15,13,06,22.10
2017,06,15,13,07,22.10
2017,06,15,13,08,25.70
2017,06,15,13,09,22.90
2017,06,15,13,10,25.40
2017,06,15,13,11,24.40
2017,06,15,13,12,22.40
2017,06,15,13,13,21.30
2017,06,15,13,14,19.70
2017,06,15,13,15,18.80
2017,06,15,13,16,20.10
2017,06,15,13,17,21.30
2017,06,15,13,18,22.40
2017,06,15,13,19,26.30
2017,06,15,13,20,25.90
2017,06,15,13,21,18.20
2017,06,15,13,22,21.40
2017,06,15,13,23,18.30
2017,06,15,13,24,22.20
2017,06,15,13,25,22.60
2017,06,15,13,26,21.90
2017,06,15,13,27,30.00
2017,06,15,13,28,25.50
2017,06,15,13,29,22.70
2017,06,15,13,30,26.90
2017,06,15,13,31,20.30
2017,06,15,13,32,27.20
2017,06,15,13,33,27.10
2017,06,15,13,34,22.10
2017,06,15,13,35,29.60
2017,06,15,13,36,26.20
2017,06,15,13,37,27.80
2017,06,15,13,38,29.10
2017,06,15,13,39,26.30
2017,06,15,13,40,23.40
2017,06,15,13,41,22.90
2017,06,15,13,42,22.00
2017,06,15,13,43,22.70
2017,06,15,13,44,22.10
2017,06,15,13,45,17.00
2017,06,15,13,46,15.60
2017,06,15,13,47,19.10
2017,06,15,13,48,16.60
2017,06,15,13,49,20.00
2017,06,15,13,50,24.10
2017,06,15,13,51,18.10
2017,06,15,13,52,21.10
2017,06,15,13,53,21.00
2017,06,15,13,54,16.40
2017,06,15,13,55,20.20
2017,06,15,13,56,28.80
2017,06,15,13,57,25.00
2017,06,15,13,58,20.50
2017,06,15,13,59,16.70
2017,06,15,14,00,20.90
2017,06,15,14,01,16.90
2017,06,15,14,02,16.50
2017,06,15,14,03,16.00
2017,06,15,14,04,17.00
2017,06,15,14,05,15.00
2017,06,15,14,06,21.60
2017,06,15,14,07,24.60
2017,06,15,14,08,16.10
2017,06,15,14,09,10.90
2017,06,15,14,10,16.30
2017,06,15,14,11,19.30
2017,06,15,14,12,16.10
2017,06,15,14,13,11.10
2017,06,15,14,14,11.60
2017,06,15,14,15,9.60
2017,06,15,14,16,16.40
2017,06,15,14,17,15.90
2017,06,15,14,18,17.70
2017,06,15,14,19,12.90
2017,06,15,14,20,6.40
2017,06,15,14,21,10.60
2017,06,15,14,22,19.90
2017,06,15,14,23,11.50
2017,06,15,14,24,12.90
2017,06,15,14,25,15.50
2017,06,15,14,26,20.50
2017,06,15,14,27,19.70
2017,06,15,14,28,14.80
2017,06,15,14,29,13.70
2017,06,15,14,30,23.40
2017,06,15,14,31,19.40
2017,06,15,14,32,17.20
2017,06,15,14,33,20.60
2017,06,15,14,34,19.70
2017,06,15,14,35,14.70
2017,06,15,14,36,15.30
2017,06,15,14,37,20.10
2017,06,15,14,38,21.70
2017,06,15,14,39,20.20
2017,06,15,14,40,18.40
2017,06,15,14,41,19.90
2017,06,15,14,42,23.20
2017,06,15,14,43,23.20
2017,06,15,14,44,16.60
2017,06,15,14,45,20.00
2017,06,15,14,46,22.80
2017,06,15,14,47,26.80
2017,06,15,14,48,20.90
2017,06,15,14,49,21.10
2017,06,15,14,50,27.20
2017,06,15,14,51,21.40
2017,06,15,14,52,22.70
2017,06,15,14,53,22.50
2017,06,15,14,54,22.50
2017,06,15,14,55,24.20
2017,06,15,14,56,22.40
2017,06,15,14,57,25.70
2017,06,15,14,58,19.90
2017,06,15,14,59,21.30
2017,06,15,15,00,24.50
2017,06,15,15,01,27.40
2017,06,15,15,02,25.50
2017,06,15,15,03,21.30
2017,06,15,15,04,24.10
2017,06,15,15,05,25.70
2017,06,15,15,06,25.30
2017,06,15,15,07,23.00
2017,06,15,15,08,19.70
2017,06,15,15,09,26.50
2017,06,15,15,10,19.10
2017,06,15,15,11,26.90
2017,06,15,15,12,27.70
2017,06,15,15,13,26.30
2017,06,15,15,14,20.70
2017,06,15,15,15,19.70
2017,06,15,15,16,23.40
2017,06,15,15,17,22.70
2017,06,15,15,18,20.90
2017,06,15,15,19,25.20
2017,06,15,15,20,22.20
2017,06,15,15,21,23.50
2017,06,15,15,22,25.00
2017,06,15,15,23,21.80
2017,06,15,15,24,20.90
2017,06,15,15,25,21.80
2017,06,15,15,26,18.60
2017,06,15,15,27,20.90
2017,06,15,15,28,25.10
2017,06,15,15,29,22.30
2017,06,15,15,30,20.10
2017,06,15,15,31,22.50
2017,06,15,15,32,18.40
2017,06,15,15,33,25.50
2017,06,15,15,34,25.30
2017,06,15,15,35,25.70
2017,06,15,15,36,22.70
2017,06,15,15,37,23.70
2017,06,15,15,38,21.70
2017,06,15,15,39,26.50
2017,06,15,15,40,27.30
2017,06,15,15,41,19.70
2017,06,15,15,42,21.90
2017,06,15,15,43,29.50
2017,06,15,15,44,25.20
2017,06,15,15,45,26.50
2017,06,15,15,46,23.20
2017,06,15,15,47,20.70
2017,06,15,15,48,20.40
2017,06,15,15,49,20.90
2017,06,15,15,50,17.80
2017,06,15,15,51,20.30
2017,06,15,15,52,19.00
2017,06,15,15,53,18.80
2017,06,15,15,54,24.60
2017,06,15,15,55,19.50
2017,06,15,15,56,29.40
2017,06,15,15,57,26.30
2017,06,15,15,58,22.80
2017,06,15,15,59,22.60
2017,06,15,16,00,19.30
2017,06,15,16,01,25.60
2017,06,15,16,02,25.00
2017,06,15,16,03,19.00
2017,06,15,16,04,19.90
2017,06,15,16,05,16.90
2017,06,15,16,06,16.90
2017,06,15,16,07,16.30
2017,06,15,16,08,21.60
2017,06,15,16,09,22.20
2017,06,15,16,10,21.60
2017,06,15,16,11,17.10
2017,06,15,16,12,16.50
2017,06,15,16,13,16.60
2017,06,15,16,14,20.80
2017,06,15,16,15,22.80
2017,06,15,16,16,16.70
2017,06,15,16,17,16.60
2017,06,15,16,18,23.00
2017,06,15,16,19,22.70
2017,06,15,16,20,19.80
2017,06,15,16,21,23.40
2017,06,15,16,22,18.10
2017,06,15,16,23,20.10
2017,06,15,16,24,26.60
2017,06,15,16,25,21.10
2017,06,15,16,26,21.60
2017,06,15,16,27,18.20
2017,06,15,16,28,21.90
2017,06,15,16,29,22.50
2017,06,15,16,30,21.40
2017,06,15,16,31,28.00
2017,06,15,16,32,20.50
2017,06,15,16,33,22.10
2017,06,15,16,34,22.30
2017,06,15,16,35,24.90
2017,06,15,16,36,28.10
2017,06,15,16,37,24.60
2017,06,15,16,38,22.90
2017,06,15,16,39,27.30
2017,06,15,16,40,20.70
2017,06,15,16,41,28.90
2017,06,15,16,42,21.60
2017,06,15,16,43,19.70
2017,06,15,16,44,21.20
2017,06,15,16,45,20.20
2017,06,15,16,46,22.00
2017,06,15,16,47,28.50
2017,06,15,16,48,24.00
2017,06,15,16,49,21.90
2017,06,15,16,50,21.30
2017,06,15,16,51,21.30
2017,06,15,16,52,23.40
2017,06,15,16,53,19.10
2017,06,15,16,54,23.20
2017,06,15,16,55,21.80
2017,06,15,16,56,21.00
2017,06,15,16,57,21.30
2017,06,15,16,58,18.70
2017,06,15,16,59,18.90
2017,06,15,17,00,23.10
2017,06,15,17,01,18.70
2017,06,15,17,02,16.00
2017,06,15,17,03,19.90
2017,06,15,17,04,25.50
2017,06,15,17,05,19.10
2017,06,15,17,06,16.30
2017,06,15,17,07,26.10
2017,06,15,17,08,19.10
2017,06,15,17,09,19.90
2017,06,15,17,10,24.70
2017,06,15,17,11,22.10
2017,06,15,17,12,25.00
2017,06,15,17,13,27.40
2017,06,15,17,14,22.60
2017,06,15,17,15,24.70
2017,06,15,17,16,22.00
2017,06,15,17,17,24.70
2017,06,15,17,18,28.50
2017,06,15,17,19,23.90
2017,06,15,17,20,24.20
2017,06,15,17,21,18.80
2017,06,15,17,22,16.30
2017,06,15,17,23,22.80
2017,06,15,17,24,18.70